FENGYUN 1C DEB, 30661

Orbit data source: Space-Track

FENGYUN 1C DEB, 30661 is space debris in SSO originally from a launch on Mon, 10 May 1999 UTC launched from the Taiyaun Space Center, China (TSC). Fengyun 1C debris stems from the Chinese weather satellite Fengyun-1C, which was intentionally destroyed by a Chinese anti-satellite missile in 2007. This event dramatically increased the amount of space debris, with thousands of trackable fragments posing hazards to satellites and human spaceflight. The Fengyun 1C debris cloud has become a focal point in discussions about space sustainability and the need for international regulations to prevent the creation of new debris.

Loading next visibility...
Identifier
30661, 1999-025APT
Orbit
SSO
Country
Flag of CNCN / PRC
Related business
Manufacturer
Unknown
Mission
Spacecraft
Bus & Motor
Unknown
Mass
Unknown
Launch date (UTC)
1999-05-10 (27 years ago)
Launch vehicle
Unknown
Launch site
Taiyaun Space Center, China (TSC)
Object type
Payload
Rocket body
Debris
Shape & HBR
Unknown shape, 0.1 m
Radar Cross Section
Medium (>0.1 m² and <1 m²)

Expand to show TLE details & history
Last TLE update: 22 hours ago

TLE from 22 hours ago
0 FENGYUN 1C DEB
1 30661U 99025APT 26207.39166742  .00000322  00000-0  15315-3 0  9991
2 30661  99.4907  44.8821 0144489 129.0777 232.3354 14.21300832 11082
Epoch: 2026-07-26T09:24Z
TLE epoch observation values (Epoch: 2026-07-26T09:24:00.065Z)
Latitude
-0.00001°
Longitude
-40.20843°
Altitude
888.35 km
Speed
7.375 km/s
True Right ascension
02h 59m 31s
True Declination
0° 00' 00"
Sunlit
Object was in daylight at epoch
Visualization orbit readout
Latitude
Unknown
Longitude
Unknown
Altitude
Unknown
Speed
Unknown
Apparent Right ascension
Unknown
Apparent Declination
Unknown
Sunlit
N/A
Visualization observer readout
Local Sidereal Time
20:30:20
Azimuth
Unknown
Elevation
Unknown
Doppler factor
Unknown
Orbital elements
Apogee altitude
922.13 km
Perigee altitude
714.173 km
Semi-major axis
7,196.289 km
Eccentricity
0.01445
Inclination
99.4907°
RAAN
44.8821°
Arg. of periapsis
129.0777°
True anomaly
231.03915°
Mean anomaly
232.3354°
Eccentric anomaly
231.68584°
Mean motion
3.55533 °/min
Orbital period
101.26 mins
BSTAR
0.00015315
Loading maneuver chart data...
Computing Atmospheric mass density...

Documentation

Showing up to 5 results
|